When you browse on this site, cookies collect data to enhance your experience and personalize the content and advertising you see.
Visit our Privacy Policy to learn more. By continuing to use the site, you agree to this use of cookies and data.

Météo par heure à Tinghir

Ce jour, 10 Juillet, Vendredi

Heure Température Précipitation Vent Pression Humidité
00:00 +27°C° 0 mm 1 m/s 655 mmHg 19%
01:00 +26°C° 0 mm 1 m/s 655 mmHg 20%
02:00 +26°C° 0 mm 1 m/s 654 mmHg 20%
03:00 +23°C° 0 mm 0 m/s 653 mmHg 20%
04:00 +23°C° 0 mm 0 m/s 654 mmHg 20%
05:00 +23°C° 0 mm 0 m/s 654 mmHg 20%
06:00 +22°C° 0 mm 0 m/s 654 mmHg 20%
07:00 +27°C° 0 mm 1 m/s 655 mmHg 17%
08:00 +29°C° 0 mm 1 m/s 655 mmHg 15%
09:00 +31°C° 0 mm 2 m/s 656 mmHg 12%
10:00 +34°C° 0 mm 3 m/s 656 mmHg 11%
11:00 +35°C° 0 mm 3 m/s 656 mmHg 10%
12:00 +36°C° 0 mm 4 m/s 656 mmHg 10%
13:00 +37°C° 0 mm 4 m/s 656 mmHg 9%
14:00 +37°C° 0 mm 4 m/s 655 mmHg 9%
15:00 +38°C° 0 mm 4 m/s 655 mmHg 8%
16:00 +39°C° 0 mm 5 m/s 655 mmHg 8%
17:00 +37°C° 0 mm 5 m/s 655 mmHg 9%
18:00 +37°C° 0 mm 5 m/s 654 mmHg 9%
19:00 +35°C° 0 mm 4 m/s 654 mmHg 10%
20:00 +33°C° 0 mm 3 m/s 654 mmHg 11%
21:00 +30°C° 0 mm 2 m/s 654 mmHg 12%
22:00 +29°C° 0 mm 2 m/s 654 mmHg 13%
23:00 +28°C° 0 mm 1 m/s 654 mmHg 14%

Demain, 11 Juillet, Samedi

Heure Température Précipitation Vent Pression Humidité
00:00 +28°C° 0 mm 1 m/s 654 mmHg 15%
01:00 +27°C° 0 mm 1 m/s 654 mmHg 15%
02:00 +27°C° 0 mm 1 m/s 653 mmHg 16%
03:00 +26°C° 0 mm 1 m/s 653 mmHg 16%
04:00 +26°C° 0 mm 2 m/s 653 mmHg 16%
05:00 +26°C° 0 mm 2 m/s 654 mmHg 16%
06:00 +26°C° 0 mm 2 m/s 654 mmHg 16%
07:00 +28°C° 0 mm 3 m/s 655 mmHg 15%
08:00 +30°C° 0 mm 4 m/s 655 mmHg 13%
09:00 +34°C° 0 mm 4 m/s 656 mmHg 12%
10:00 +35°C° 0 mm 4 m/s 656 mmHg 11%
11:00 +36°C° 0 mm 5 m/s 656 mmHg 11%
12:00 +37°C° 0 mm 5 m/s 656 mmHg 10%
13:00 +39°C° 0 mm 5 m/s 656 mmHg 10%
14:00 +39°C° 0 mm 5 m/s 656 mmHg 9%
15:00 +40°C° 0 mm 6 m/s 655 mmHg 9%
16:00 +40°C° 0 mm 5 m/s 655 mmHg 9%
17:00 +39°C° 0 mm 5 m/s 655 mmHg 9%
18:00 +38°C° 0 mm 4 m/s 655 mmHg 9%
19:00 +36°C° 0 mm 4 m/s 655 mmHg 11%
20:00 +34°C° 0 mm 4 m/s 655 mmHg 14%
21:00 +31°C° 0 mm 3 m/s 656 mmHg 16%
22:00 +30°C° 0 mm 2 m/s 655 mmHg 19%
23:00 +30°C° 0 mm 2 m/s 655 mmHg 22%

Après-demain, 12 Juillet, Dimanche

Heure Température Précipitation Vent Pression Humidité
00:00 +29°C° 0 mm 1 m/s 655 mmHg 25%
01:00 +28°C° 0 mm 1 m/s 655 mmHg 26%
02:00 +28°C° 0 mm 1 m/s 655 mmHg 27%
03:00 +28°C° 0 mm 1 m/s 655 mmHg 28%
04:00 +28°C° 0 mm 1 m/s 655 mmHg 28%
05:00 +28°C° 0 mm 1 m/s 655 mmHg 28%
06:00 +28°C° 0 mm 1 m/s 655 mmHg 29%
07:00 +30°C° 0 mm 2 m/s 656 mmHg 24%
08:00 +31°C° 0 mm 3 m/s 657 mmHg 20%
09:00 +34°C° 0 mm 4 m/s 658 mmHg 16%
10:00 +35°C° 0 mm 5 m/s 658 mmHg 15%
11:00 +36°C° 0 mm 5 m/s 658 mmHg 14%
12:00 +38°C° 0 mm 6 m/s 658 mmHg 13%
13:00 +39°C° 0 mm 6 m/s 658 mmHg 12%
14:00 +39°C° 0 mm 7 m/s 658 mmHg 11%
15:00 +40°C° 0 mm 7 m/s 657 mmHg 10%
16:00 +39°C° 0 mm 7 m/s 657 mmHg 10%
17:00 +39°C° 0 mm 6 m/s 657 mmHg 10%
18:00 +38°C° 0 mm 6 m/s 657 mmHg 10%
19:00 +35°C° 0 mm 4 m/s 657 mmHg 11%
20:00 +34°C° 0 mm 3 m/s 657 mmHg 12%
21:00 +31°C° 0 mm 1 m/s 657 mmHg 14%
22:00 +30°C° 0 mm 1 m/s 657 mmHg 14%
23:00 +29°C° 0 mm 1 m/s 657 mmHg 14%

13 Juillet, Lundi

Heure Température Précipitation Vent Pression Humidité
00:00 +28°C° 0 mm 1 m/s 657 mmHg 14%
01:00 +27°C° 0 mm 1 m/s 656 mmHg 15%
02:00 +27°C° 0 mm 1 m/s 656 mmHg 16%
03:00 +26°C° 0 mm 1 m/s 655 mmHg 17%
04:00 +26°C° 0 mm 1 m/s 655 mmHg 17%
05:00 +26°C° 0 mm 1 m/s 655 mmHg 17%
06:00 +26°C° 0 mm 1 m/s 656 mmHg 17%
07:00 +28°C° 0 mm 1 m/s 656 mmHg 16%
08:00 +31°C° 0 mm 2 m/s 657 mmHg 14%
09:00 +34°C° 0 mm 3 m/s 658 mmHg 13%
10:00 +35°C° 0 mm 3 m/s 658 mmHg 12%
11:00 +36°C° 0 mm 4 m/s 658 mmHg 11%
12:00 +37°C° 0 mm 4 m/s 658 mmHg 9%
13:00 +38°C° 0 mm 4 m/s 657 mmHg 9%
14:00 +38°C° 0 mm 4 m/s 657 mmHg 9%
15:00 +40°C° 0 mm 4 m/s 657 mmHg 9%
16:00 +38°C° 0 mm 3 m/s 656 mmHg 9%
17:00 +38°C° 0 mm 3 m/s 656 mmHg 9%
18:00 +38°C° 0 mm 3 m/s 656 mmHg 9%
19:00 +36°C° 0 mm 2 m/s 656 mmHg 12%
20:00 +34°C° 0 mm 2 m/s 657 mmHg 15%
21:00 +31°C° 0 mm 2 m/s 657 mmHg 18%
22:00 +30°C° 0 mm 3 m/s 656 mmHg 25%
23:00 +29°C° 0 mm 3 m/s 656 mmHg 31%

14 Juillet, Mardi

Heure Température Précipitation Vent Pression Humidité
00:00 +27°C° 0 mm 3 m/s 656 mmHg 38%
01:00 +27°C° 0 mm 3 m/s 655 mmHg 37%
02:00 +27°C° 0 mm 2 m/s 655 mmHg 36%
03:00 +26°C° 0 mm 1 m/s 654 mmHg 34%
04:00 +26°C° 0 mm 1 m/s 654 mmHg 33%
05:00 +26°C° 0 mm 1 m/s 654 mmHg 33%
06:00 +26°C° 0 mm 1 m/s 654 mmHg 32%
07:00 +28°C° 0 mm 1 m/s 655 mmHg 27%
08:00 +31°C° 0 mm 2 m/s 655 mmHg 23%
09:00 +34°C° 0 mm 2 m/s 656 mmHg 19%
10:00 +35°C° 0 mm 3 m/s 656 mmHg 16%
11:00 +37°C° 0 mm 3 m/s 656 mmHg 14%
12:00 +38°C° 0 mm 4 m/s 656 mmHg 12%
13:00 +38°C° 0 mm 4 m/s 655 mmHg 11%
14:00 +38°C° 0 mm 4 m/s 655 mmHg 11%
15:00 +38°C° 0 mm 4 m/s 654 mmHg 11%
16:00 +38°C° 0 mm 4 m/s 654 mmHg 11%
17:00 +37°C° 0 mm 4 m/s 654 mmHg 12%
18:00 +37°C° 0 mm 4 m/s 654 mmHg 12%
19:00 +35°C° 0 mm 3 m/s 654 mmHg 14%
20:00 +32°C° 0 mm 2 m/s 654 mmHg 16%
21:00 +31°C° 0 mm 2 m/s 654 mmHg 18%
22:00 +30°C° 0 mm 2 m/s 654 mmHg 20%
23:00 +29°C° 0 mm 2 m/s 654 mmHg 22%

15 Juillet, Mercredi

Heure Température Précipitation Vent Pression Humidité
00:00 +28°C° 0 mm 2 m/s 654 mmHg 25%
01:00 +28°C° 0 mm 2 m/s 654 mmHg 26%
02:00 +27°C° 0 mm 2 m/s 653 mmHg 27%
03:00 +26°C° 0 mm 2 m/s 653 mmHg 28%
04:00 +26°C° 0 mm 2 m/s 653 mmHg 28%
05:00 +26°C° 0 mm 2 m/s 653 mmHg 29%
06:00 +26°C° 0 mm 2 m/s 654 mmHg 29%
07:00 +28°C° 0 mm 3 m/s 654 mmHg 26%
08:00 +32°C° 0 mm 4 m/s 655 mmHg 22%
09:00 +34°C° 0 mm 5 m/s 656 mmHg 19%
10:00 +35°C° 0 mm 6 m/s 656 mmHg 17%
11:00 +36°C° 0 mm 6 m/s 657 mmHg 15%
12:00 +39°C° 0 mm 7 m/s 657 mmHg 13%
13:00 +40°C° 0 mm 7 m/s 657 mmHg 12%
14:00 +40°C° 0 mm 7 m/s 656 mmHg 11%
15:00 +41°C° 0 mm 7 m/s 656 mmHg 9%
16:00 +40°C° 0 mm 7 m/s 656 mmHg 10%
17:00 +39°C° 0 mm 7 m/s 656 mmHg 11%
18:00 +38°C° 0 mm 8 m/s 655 mmHg 12%
19:00 +35°C° 0 mm 6 m/s 656 mmHg 14%
20:00 +34°C° 0 mm 3 m/s 656 mmHg 17%
21:00 +31°C° 0 mm 1 m/s 656 mmHg 19%
22:00 +30°C° 0 mm 1 m/s 656 mmHg 20%
23:00 +29°C° 0 mm 1 m/s 656 mmHg 20%
Voir plus